Погода в Саксагани

Украина / Днепропетровская область     48°20′57″N   33°49′59″E
темп.,
°C
ветер,
м/с
пор.,
м/с
влажн.,
%
обл.,
%
осадки,
мм/ч
давл.,
гПа
погр.,
м
26 октября, вт
вт2600:00+2в22600 0.0 103411
03:00+1юв22630 0.0 103411
06:000ююв22650 0.0 103416
09:00+3ююв34560 0.0 1034176
12:00+8ю44395 0.0 1033808
15:00+10ююв34305 0.0 10311061
18:00+6ю35334 0.0 103165
21:00+4ю34351 0.0 103050
27 октября, ср
ср2700:00+3ю47585 0.0 1030123
03:00+1ююв34750 0.0 103066
06:00+1ю33790 0.0 102926
09:00+3ю34680 0.0 1029152
12:00+9ююз45450 0.0 1027716
15:00+11зюз34370 0.0 1025993
18:00+8зюз23520 0.0 102517
21:00+6зюз22700 0.0 102514
28 октября, чт
чт2800:00+5зюз337923 0.0 102526
03:00+5зсз2285100 0.0 102516
06:00+5зсз2273100 0.0 102514
09:00+7з2465100 0.0 1026111
12:00+13з45518 0.0 1024644
15:00+15з574332 0.0 10221169
18:00+12з3660100 0.0 1022107
21:00+12зсз376479 0.0 1023193
29 октября, пт
пт2900:00+11ссз4876100 0.0 1023365
03:00+9с379266 0.0 1024164
06:00+7с389615 0.0 1026169
09:00+8ссв36875 0.0 1027213
12:00+14ссв34565 0.0 1027895
15:00+15св33480 0.0 10271197
18:00+11св34630 0.0 102844
21:00+9всв33691 0.0 102933
30 октября, сб
сб3000:00+8в36800 0.0 103099
03:00+7вюв34810 0.0 103148
06:00+6вюв34825 0.0 103164
09:00+8вюв36705 0.0 1032171
12:00+13юв45485 0.0 1032901
15:00+15вюв44430 0.0 10311179
18:00+11вюв33530 0.0 103134
21:00+8вюв35593 0.0 103184